Yakima, WA

10:43 AM PDT on May 29, 2017 (GMT -0700)
Yakima Air Term-McAllister

Weather History for KYKM - September, 2012

Change the Weather History Date:

Monday, September 10, 2012

  Actual Average Record
Temperature  
Mean Temperature 57 °F 63 °F  
Max Temperature 71 °F 80 °F 99 °F (2011)
Min Temperature 43 °F 45 °F 36 °F (1972)
Degree Days  
Heating Degree Days 8 4  
Month to date heating degree days 12 28  
Since 1 July heating degree days 32 76  
Cooling Degree Days 0 1  
Month to date cooling degree days 22 19  
Year to date cooling degree days 647 459  
Growing Degree Days 8 (Base 50)    
Moisture  
Dew Point 36 °F    
Average Humidity 50    
Maximum Humidity 77    
Minimum Humidity 22    
Precipitation  
Precipitation 0.00 in 0.01 in 0.32 in (1985)
Month to date precipitation 0.04 0.11  
Year to date precipitation 5.52 4.88  
Snow  
Snow 0.00 in 0.00 in 0.00 in (2002)
Month to date snowfall 0.0 0.0  
Year to date snowfall 21.5 8.6  
Since 1 July snowfall 0.0 0.0  
Snow Depth 0.00 in    
Sea Level Pressure  
Sea Level Pressure 30.01 in    
Wind  
Wind Speed 6 mph (WNW)    
Max Wind Speed 22 mph    
Max Gust Speed 32 mph    
Visibility 10 miles    
Events      
T = Trace of Precipitation, MM = Missing Value Source: NWS Daily Summary

Daily Weather History Graph

Daily Weather History Graph

Search for Another Location

Airport or City:

Trip Planner

Search our weather history database for the weather conditions in past years. The results will help you decide how hot, cold, wet, or windy it might be!

Date:

Astronomy

Sep. 10, 2012 Rise Set
Actual Time 6:34 AM PDT 7:22 PM PDT
Civil Twilight 6:03 AM PDT 7:53 PM PDT
Nautical Twilight 5:27 AM PDT 8:29 PM PDT
Astronomical Twilight 4:48 AM PDT 9:07 PM PDT
Moon 12:44 AM PDT (9/10) 4:09 PM PDT (9/10)
Length of Visible Light 13h 49m
Length of Day
12h 48m
Waning Crescent, 29% of the Moon is Illuminated
Sep 10
Waning Crescent
Sep 15
New
Sep 22
First Quarter
Sep 29
Full
Oct 8
Last Quarter

Hourly Weather History & Observations

Time (PDT) Temp. Dew Point Humidity Pressure Visibility Wind Dir Wind Speed Gust Speed Precip Events Conditions
12:53 AM 57.9 °F 44.1 °F 60% 29.90 in 10.0 mi WNW 5.8 mph 26.5 mph N/A   Unknown
1:53 AM 57.9 °F 44.1 °F 60% 29.90 in 10.0 mi Calm Calm - N/A   Partly Cloudy
2:53 AM 57.9 °F 44.1 °F 60% 29.90 in 10.0 mi Calm Calm - N/A   Clear
3:53 AM 53.1 °F 43.0 °F 69% 29.91 in 10.0 mi Calm Calm - N/A   Clear
4:53 AM 52.0 °F 43.0 °F 71% 29.91 in 10.0 mi Calm Calm - N/A   Clear
5:53 AM 48.0 °F 41.0 °F 77% 29.92 in 10.0 mi WNW 5.8 mph - N/A   Clear
6:53 AM 46.9 °F 39.9 °F 77% 29.94 in 10.0 mi Calm Calm - N/A   Partly Cloudy
7:53 AM 54.0 °F 45.0 °F 72% 29.97 in 10.0 mi SW 3.5 mph - N/A   Scattered Clouds
8:53 AM 64.0 °F 42.1 °F 45% 29.98 in 10.0 mi NNW 4.6 mph - N/A   Scattered Clouds
9:53 AM 68.0 °F 36.0 °F 31% 29.99 in 10.0 mi NW 8.1 mph - N/A   Partly Cloudy
10:53 AM 66.9 °F 26.1 °F 21% 30.01 in 10.0 mi WNW 17.3 mph - N/A   Partly Cloudy
11:53 AM 69.1 °F 33.1 °F 26% 30.03 in 10.0 mi NNW 10.4 mph - N/A   Partly Cloudy
12:53 PM 70.0 °F 32.0 °F 25% 30.04 in 10.0 mi North 11.5 mph 21.9 mph N/A   Partly Cloudy
1:53 PM 70.0 °F 30.9 °F 24% 30.04 in 10.0 mi West 10.4 mph - N/A   Partly Cloudy
2:53 PM 70.0 °F 32.0 °F 25% 30.04 in 10.0 mi WNW 15.0 mph 18.4 mph N/A   Partly Cloudy
3:53 PM 70.0 °F 32.0 °F 25% 30.04 in 10.0 mi West 11.5 mph - N/A   Partly Cloudy
4:53 PM 70.0 °F 32.0 °F 25% 30.05 in 10.0 mi West 9.2 mph - N/A   Partly Cloudy
5:53 PM 66.9 °F 34.0 °F 30% 30.06 in 10.0 mi West 15.0 mph - N/A   Partly Cloudy
6:53 PM 62.1 °F 35.1 °F 37% 30.06 in 10.0 mi West 10.4 mph - N/A   Clear
7:53 PM 57.0 °F 35.1 °F 44% 30.08 in 10.0 mi WSW 6.9 mph - N/A   Clear
8:53 PM 55.0 °F 35.1 °F 47% 30.10 in 10.0 mi Calm Calm - N/A   Clear
9:53 PM 54.0 °F 34.0 °F 47% 30.12 in 10.0 mi WSW 5.8 mph - N/A   Clear
10:53 PM 46.9 °F 34.0 °F 61% 30.13 in 10.0 mi WSW 4.6 mph - N/A   Clear
11:53 PM 48.9 °F 35.1 °F 59% 30.14 in 10.0 mi Calm Calm - N/A   Clear